Location: Asheville, NC
(35.6000°N, 82.5500°W)
Time: 06:08:03
(UTC-04:00)

CUTE 1.7 + AOD 2 - Pass Details

Date: 07 January 2018
Orbit: 595 x 612 km, 97.5° (Epoch: 22 July)

Event Time Altitude Azimuth Distance (km) Brightness Sun altitude
Rises 19:20:54 0° 189° (S) 2,857 ? -21.4°
Reaches altitude 10° 19:23:15 10° 200° (SSW) 1,958 ? -21.9°
Maximum altitude 19:27:03 31° 263° (W) 1,066 ? -22.6°
Drops below altitude 10° 19:30:53 10° 326° (NNW) 1,970 ? -23.4°
Sets 19:33:17 0° 337° (NNW) 2,877 ? -23.9°
